Regional Weather Roundup
Issued by NWS

Home | Current Version | Previous Version | Text Only | Print | Product List | Glossary On
Versions: 1 2 3 4 5 6 7 8 9 10 11 12 13 14 15 16 17 18 19 20 21 22 23 24 25 26 27 28 29 30 31 32 33 34 35 36 37 38 39 40 41 42 43 44 45 46 47 48 49 50
000
ASUS42 KTBW 270410
RWRFL
FLORIDA REGIONAL WEATHER ROUNDUP
NATIONAL WEATHER SERVICE TAMPA BAY RUSKIN FL
1100 PM EST THU FEB 26 2015

NOTE: "FAIR" INDICATES FEW OR NO CLOUDS BELOW 12,000 FEET WITH NO
SIGNIFICANT WEATHER AND/OR OBSTRUCTIONS TO VISIBILITY.


FLZ001>010-012>015-112-114-115-270500-
PANHANDLE FLORIDA

CITY           SKY/WX    TMP DP  RH WIND       PRES   REMARKS
PENSACOLA      MOCLDY    39  36  89 N3        30.21R
PENSACOLA NAS  MOCLDY    37  35  92 N3        30.21R
MILTON NAS     MOCLDY    38  34  85 NE8       30.22R WCI  32
CRESTVIEW      MOCLDY    37  35  92 N5        30.23R WCI  33
TRI COUNTY     FAIR      41  33  73 N9        30.20R WCI  35
PANAMA CITY    FAIR      42  37  82 NW5       30.17R WCI  39
APALACHICOLA   CLOUDY    49  38  65 N12       30.15R WCI  44

STATION/POSITION SKY/WX   TEMP    WIND        PRES    WAVE   SWELL
                          AIR SEA DIR/SP/G            HT/PER HT/PER
                          (F)     (DEG/KT/KT) (MB)    (FT/S) (FT/S)
30.1N   87.6W              48 62   10/ 16/ 19 1022.0R   2/ 7   2/ 7
29.2N   88.2W              50 63   30/ 19/ 23 1022.6R   4/ 6
28.7N   86.0W              54 67   20/ 14/ 17 1020.8R   5/ 7   3/ 7
PANAMA CITY BEAC           42 56   10/  6/  7 1021.8R
CAPE SAN BLAS    NOT AVBL
TOWER C                    48      10/ 15/ 17 1020.5R
28.5N   84.5W              55 66   10/ 16/ 19 1019.1R   5/ 8   3/ 8

$$
FLZ011-016>038-118-127-128-134-139-239-270500-
NORTH FLORIDA

CITY           SKY/WX    TMP DP  RH WIND       PRES   REMARKS
MARIANNA       CLOUDY    43  38  82 N7        30.17R WCI  39
TALLAHASSEE    CLOUDY    46  38  73 N3        30.16R
PERRY          CLOUDY    48  41  75 N8        30.15R WCI  45
CROSS CITY       N/A     51  43  74 NE9       30.11R
LAKE CITY      FAIR      46  41  81 NE6       30.13R WCI  43
GAINESVILLE    CLOUDY    50  43  77 N9        30.11R
MAYPORT NAS    CLOUDY    49  41  74 N10       30.14R WCI  45
JACKSONVILLE   CLOUDY    48  42  80 N6        30.13R
JAX NAS        CLOUDY    52  40  63 N15       30.14R
JAX CRAIG      CLOUDY    49  40  71 N7        30.14R
JAX CECIL      CLOUDY    48  39  71 N8        30.14R WCI  45
FERNANDINA BEA CLOUDY    52  43  71 NE9       30.12S
ST AUGUSTINE   CLOUDY    51  44  77 N14G21    30.13R

STATION/POSITION SKY/WX   TEMP    WIND        PRES    WAVE   SWELL
                          AIR SEA DIR/SP/G            HT/PER HT/PER
                          (F)     (DEG/KT/KT) (MB)    (FT/S) (FT/S)
SHELL POINT                47     360/  6/  9   N/A
KEATON BEACH               49      10/  7/  9 1020.4R
CEDAR KEY                  53     360/  8/ 11 1019.2R
FERNANDINA                 48 57   10/ 12/ 14 1019.7F
30.7N   81.3W                 54                N/A     3/10   2/11
MAYPORT                    49 57  360/  9/ 12 1020.3R
31.4N   80.9W              48 52   40/ 14/ 16 1020.4R   3/10   2/10
ST AUGUSTINE               50      10/ 20/ 21 1020.3R

$$
FLZ040-043>046-052-053-057-058-063-144-270500-
INTERIOR CENTRAL FLORIDA

CITY           SKY/WX    TMP DP  RH WIND       PRES   REMARKS
OCALA          MOCLDY    50  45  81 N3        30.09R
THE VILLAGES     N/A     55  48  76 N7        30.00R
LEESBURG       CLOUDY    57  49  74 N9        30.09R
SANFORD        CLOUDY    56  48  74 NE8       30.08R
ORLANDO EXEC   CLOUDY    57  48  72 NE12      30.07S
ORLANDO INTL   CLOUDY    57  51  80 N14       30.07R
WINTER HAVEN   CLOUDY    57  50  77 NW6       30.07S
LAKELAND       CLOUDY    54  48  82 NW7       30.07R
BARTOW         CLOUDY    55  48  76 NW6       30.07S
OKEECHOBEE     CLOUDY    61  59  94 N3        30.04S

$$
FLZ041-047-054-059-064-141-147-270500-
EAST CENTRAL FLORIDA

CITY           SKY/WX    TMP DP  RH WIND       PRES   REMARKS
DAYTONA BEACH  CLOUDY    56  48  74 NE12      30.10R
DELAND         CLOUDY   N/A N/A N/A N9        30.10R
CAPE CANAVERAL MOCLDY    59  54  82 N10       30.04R
PATRICK AFB    CLOUDY    61  57  88 N13       30.04R
MELBOURNE      CLOUDY    60  56  86 N13       30.04R
VERO BEACH     CLOUDY    63  59  87 N6        30.04R
FT PIERCE      LGT RAIN  63  61  93 N5        30.03R
STUART         CLOUDY    64  63  94 NW7       30.04R

STATION/POSITION SKY/WX   TEMP    WIND        PRES    WAVE   SWELL
                          AIR SEA DIR/SP/G            HT/PER HT/PER
                          (F)     (DEG/KT/KT) (MB)    (FT/S) (FT/S)
28.5N   80.2W              64 68  350/ 14/ 16 1017.0R
28.9N   78.5W              64 74   10/  8/ 10 1017.5R   6/ 7   5/ 7
TRIDENT PIER     NOT AVBL
28.4N   80.5W                 63                N/A     2/11
27.6N   80.2W                 73                N/A     2/11   2/11

$$
FLZ050-056-061-142-242-148-248-149-249-151-251-155-255-
160-260-270500-
WEST CENTRAL FLORIDA

CITY           SKY/WX    TMP DP  RH WIND       PRES   REMARKS
CRYSTAL RIVER  CLOUDY    52  46  82 CALM      30.09S
INVERNESS      CLOUDY    54  41  62 N5        30.10R
BROOKSVILLE    CLOUDY    55  50  83 N6        30.09R
ZEPHYRHILLS    CLOUDY    54  50  87 NW5       30.09R
CLEARWATER     CLOUDY    55  50  83 N13       30.08R
TAMPA INTL     CLOUDY    56  48  74 N8        30.08R
TAMPA EXEC     CLOUDY    57  50  77 N3        30.09R
PLANT CITY     CLOUDY   N/A N/A N/A NW3       30.09R
PETER O KNIGHT CLOUDY    57  52  82 CALM      30.08R
ST PETERSBURG  MOCLDY    56  49  77 N9        30.06R
SARASOTA       CLOUDY    57  50  77 N8        30.05S
VENICE         CLOUDY    59  54  82 N8        30.07R

STATION/POSITION SKY/WX   TEMP    WIND        PRES    WAVE   SWELL
                          AIR SEA DIR/SP/G            HT/PER HT/PER
                          (F)     (DEG/KT/KT) (MB)    (FT/S) (FT/S)
CEDAR KEY                  53     360/  8/ 11 1019.2R
28.5N   84.5W              55 66   10/ 16/ 19 1019.1R   5/ 8   3/ 8
27.3N   84.3W                 69                N/A     6/ 8
CLEARWATER BEACH           55 62  350/ 16/ 19 1018.6R
MIDDLE TAMPA BAY           56     350/ 11/ 14 1018.5R
VENICE                     59 64  350/ 10/ 11 1017.5R

$$
FLZ066-069-070-075>078-162-262-165-265-270500-
SOUTHWEST FLORIDA AND KEYS

CITY           SKY/WX    TMP DP  RH WIND       PRES   REMARKS
PUNTA GORDA    CLOUDY    59  55  87 N12       30.06R
FT MYERS       CLOUDY    63  57  81 N12       30.04R
SOUTHWEST INTL CLOUDY    64  59  83 N9        30.04R
NAPLES         CLOUDY    67  63  87 N6        30.02R
MARCO ISLAND   CLOUDY    66  61  82 N9        30.02R
IMMOKALEE      CLOUDY   N/A N/A N/A CALM      30.04R
MARATHON       CLOUDY    76  73  91 NE3       30.00R
KEY WEST NAS   CLOUDY    74  72  93 N6        29.99S
KEY WEST INTL  LGT RAIN  75  74  96 NW5       30.00R

STATION/POSITION SKY/WX   TEMP    WIND        PRES    WAVE   SWELL
                          AIR SEA DIR/SP/G            HT/PER HT/PER
                          (F)     (DEG/KT/KT) (MB)    (FT/S) (FT/S)
VENICE                     59 64  350/ 10/ 11 1017.5R
NAPLES                     66 68  360/  6/  9 1016.4R
26.0N   85.6W              66 76  360/ 16/ 19 1017.1R   5/ 7   3/12
DRY TORTUGAS               69      50/ 17/ 18 1015.3R
NW FL BAY                  73      CALM  /  1 1015.5R
SAND KEY                   75     330/  6/  8 1015.7R
SOMBRERO KEY               75     180/  4/  4 1016.4R
LONG KEY                   75 76   80/  2/  4 1016.3R
MOLASSES REEF              76 73  230/  4/  4 1016.0R

$$
FLZ067-068-071>074-168-172>174-270500-
SOUTHEAST FLORIDA

CITY           SKY/WX    TMP DP  RH WIND       PRES   REMARKS
W PALM BEACH   LGT RAIN  70  64  81 N8        30.00R
FT LAUDER-EXEC MOCLDY    73  67  81 N3        30.00R
FT LAUDERDALE  CLOUDY    72  68  87 N6        30.00R
POMPANO BEACH  LGT RAIN  73  67  81 CALM      30.00R
PEMBROKE PINES CLOUDY    72  66  81 NW7       30.01R
OPA LOCKA      MOCLDY    73  67  81 N12       30.01R
MIAMI          MOCLDY    76  70  82 W3        30.00R
WEST KENDALL   CLOUDY    75  71  87 SW3       30.00R
HOMESTEAD      PTCLDY    72  70  94 SE5       30.00R

STATION/POSITION SKY/WX   TEMP    WIND        PRES    WAVE   SWELL
                          AIR SEA DIR/SP/G            HT/PER HT/PER
                          (F)     (DEG/KT/KT) (MB)    (FT/S) (FT/S)
PORT EVERGLADES            74     360/  4/  6 1015.7
VIRGINIA KEY               75 73  180/  5/  5 1015.3R
LAKE WORTH                 71 73  360/  9/ 11 1015.6S
SETTLEMENT POINT           73      30/ 10/ 12 1016.7R

$$



USA.gov is the U.S. government's official web portal to all federal, state and local government web resources and services.